Tracking 25378 objects as of 22-Jan-2022
HD Live streaming from Space Station
objects crossing your sky now

STARLINK-3059

Track STARLINK-3059 now!
10-day predictions
STARLINK-3059 is classified as:


NORAD ID: 49181
Int'l Code: 2021-082BD
Perigee: 577.0 km
Apogee: 581.5 km
Inclination: 70.0 °
Period: 96.1 minutes
Semi major axis: 6950 km
RCS: Unknown
Launch date: September 14, 2021
Source: United States (US)
Launch site: AIR FORCE WESTERN TEST RANGE (AFWTR)
aabbcc
Your satellite tracking list
Your tracking list is empty




NASA's NSSDC Master Catalog

Two Line Element Set (TLE):
1 49181U 21082BD  22021.58334491 -.00001268  00000-0 -98513-4 0  9999
2 49181  70.0015 136.9260 0003302 274.9533 213.9008 14.98313306  3583
Source of the keplerian elements: AFSPC